Location: Mason-Dixon Star Party
(40.0361°N, 76.9958°W)
Time: 20:06:26
(UTC-04:00)

Daily predictions for brighter satellites

Satellite Brightness Start Highest point End
(mag) Time Altitude Azimuth Time Altitude Azimuth Time Altitude Azimuth
H-2A R/B 4.2 21:00:47 10° ENE 21:01:27 10° ENE 21:02:07 10° NE
Tiangong 2 1.7 20:58:44 10° W 21:01:53 58° N 21:05:02 10° ENE
Helios 1B rocket 2.5 20:59:08 10° NNE 21:03:13 58° E 21:07:18 10° S
H-2A R/B 4.5 13:20:20 10° SW 21:03:53 50° SSW 21:11:52 10° SE
Cosmos 1680 Rocket 3.8 20:59:21 10° SSW 21:04:35 77° WNW 21:09:49 10° NNE
Meteor 2-13 Rocket 4.5 20:59:29 10° N 21:05:34 76° E 21:11:38 10° SSE
Meteor 1-19 Rocket 4.4 21:00:06 10° S 21:05:55 88° W 21:11:40 10° N
Aureole 1 Rocket 2.3 21:03:41 10° SSW 21:06:55 78° WNW 21:09:54 10° NNE
Meteor 1-23 Rocket 4.4 21:01:46 10° SSE 21:07:07 50° E 21:12:32 10° NNE
Cosmos 1346 3.6 21:05:01 10° SSW 21:07:43 55° W 21:10:27 10° N
Cosmos 2056 Rocket 4.2 21:04:46 10° N 21:09:34 38° ENE 21:14:19 10° SE
Envisat 3.0 21:05:37 10° SSE 21:10:42 85° ENE 21:15:49 10° NNW
DNEPR-1 R/B 4.1 21:10:59 10° NW 21:15:12 57° WSW 21:19:51 10° SSE
SAR-Lupe-4 3.5 21:12:13 10° SSE 21:15:46 74° ENE 21:19:22 10° N
Cosmos 2082 Rocket 3.3 21:11:35 10° SSE 21:15:59 24° ESE 21:20:22 10° NE
COSMOS 2406 4.3 21:13:56 10° SW 21:19:28 49° WNW 21:25:01 10° NNE
Okean 1-7 Rocket 3.6 21:18:17 10° S 21:22:43 73° E 21:27:14 10° NNE
YAOGAN 6 2.7 21:19:55 10° SSE 21:23:16 53° ENE 21:26:43 10° N
Cosmos 1743 4.0 21:19:53 10° NNW 21:23:35 41° W 21:27:15 10° SSW
Okean 2 3.6 21:21:33 10° S 21:25:30 50° E 21:29:28 10° NNE
Cosmos 1606 Rocket 4.1 21:23:06 10° N 21:27:11 40° ENE 21:30:36 14° SE
Cosmos 1025 Rocket 2.9 21:26:33 10° S 21:30:48 80° E 21:35:04 10° N
SPOT 5 3.9 21:28:06 13° ESE 21:30:59 25° ENE 21:34:34 10° NNE
CZ-4B DEB 2.9 21:29:03 10° S 21:32:00 64° W 21:34:59 10° NNW
SAR-Lupe-1 4.1 21:28:27 10° S 21:32:01 80° WSW 21:35:38 10° NNW
Meteor 1-15 Rocket 4.2 21:27:05 10° N 21:32:40 68° E 21:38:01 11° SSE
Cosmos 1697 Rocket 4.1 21:29:21 10° N 21:33:54 24° NE 21:37:54 12° ESE
MOS 1-B Rocket 4.4 21:29:13 13° SE 21:34:17 49° ENE 21:40:37 10° N
Cosmos 1726 Rocket 4.1 21:32:01 10° N 21:36:07 41° ENE 21:39:07 17° SE
Cosmos 2341 Rocket 4.3 21:30:54 10° N 21:37:06 52° E 21:42:28 14° SSE
Cosmos 405 3.3 21:34:29 10° NNW 21:38:01 66° W 21:41:31 10° S
Cosmos 2369 4.1 21:33:35 10° NNW 21:39:11 51° ENE 21:43:25 17° SE
Cosmos 1666 4.0 21:37:28 10° NNW 21:40:57 37° W 21:44:25 10° SSW
COSMOS 2487 2.9 21:37:46 11° S 21:41:03 42° ESE 21:44:27 10° NNE
CENTAUR R/B 4.3 21:35:42 10° NW 21:42:54 37° WSW 21:50:23 10° S
MetOp-A 4.3 21:41:21 16° SSE 21:45:37 57° ENE 21:50:53 10° N
ERS-1 Rocket 2.9 21:41:26 14° SSE 21:45:49 76° ENE 21:50:52 10° N
USA 245 3.8 21:47:18 19° E 21:47:29 19° ENE 21:49:14 10° NNE
Cosmos 1833 Rocket 3.1 21:43:34 10° S 21:48:47 41° ESE 21:54:03 10° NE
Cosmos 1371 Rocket 4.2 21:44:14 10° NNW 21:49:31 70° WSW 21:54:08 13° S
CRYOSAT 2 4.5 21:46:15 10° S 21:51:05 78° W 21:55:57 10° N
ISS -0.9 21:49:12 10° WNW 21:51:42 19° NNW 21:54:11 10° NNE
OAO 2 Rocket 4.0 21:47:32 10° W 21:52:04 37° SSW 21:54:40 22° SE
SPOT 1/Viking Rocket 4.4 21:49:30 18° ESE 21:52:34 34° ENE 21:57:12 10° N
OE (NEXTSAT) 4.5 21:49:41 10° WNW 21:53:14 63° SSW 21:54:57 27° SE
Cosmos 2058 Rocket 3.4 21:51:41 10° N 21:56:01 51° E 21:58:30 24° SSE
YAOGAN 11 4.1 22:02:03 25° SSE 22:04:29 66° ENE 22:08:48 10° N
Cosmos 1295 Rocket 4.5 21:58:36 10° N 22:04:48 71° E 22:09:16 20° SSE
Cosmos 2181 Rocket 4.0 21:58:33 10° S 22:04:54 75° E 22:11:10 10° N
ASTEX 1 4.1 22:01:18 10° S 22:06:03 51° W 22:10:50 10° NNW
Cosmos 1437 Rocket 3.3 22:02:41 10° NNW 22:06:27 54° W 22:09:19 17° S
Cosmos 1066 Rocket 4.3 22:06:49 20° SSE 22:10:27 55° E 22:15:58 10° NNE
Cosmos 1515 4.0 22:09:19 13° SSW 22:12:41 64° W 22:16:29 10° N
H-2A R/B 3.7 22:11:41 18° E 22:13:12 22° ENE 22:16:39 10° NNE
Cosmos 1626 Rocket 3.8 22:21:47 36° SE 22:22:57 46° E 22:27:06 10° NNE
Cosmos 1980 Rocket 3.1 22:18:06 10° N 22:23:17 35° ENE 22:25:49 24° ESE
ARGOS 3.1 22:20:51 25° SSE 22:24:07 85° WSW 22:29:35 10° NNW
TELKOM 3 3.4 22:31:33 10° WNW 22:33:53 76° W 22:33:53 76° W
Cosmos 2228 3.2 22:29:47 10° NNW 22:34:03 69° W 22:35:49 33° SSW
Cosmos 2322 Rocket 4.2 22:30:57 10° N 22:34:43 18° NE 22:37:39 12° E
Cosmos 921 Rocket 4.0 22:30:38 10° NNW 22:34:51 42° W 22:37:02 24° SSW
Cosmos 1953 4.4 22:32:55 10° NE 22:35:18 15° ENE 22:35:24 15° ENE
Tiangong 2 1.7 22:35:43 10° WNW 22:38:51 54° N 22:39:21 47° NE
H-2A R/B 1.9 22:38:01 38° SSE 22:39:59 85° ENE 22:45:05 10° NNW
SL-8 Rocket 4.0 22:34:19 10° N 22:40:37 82° W 22:44:11 28° S
Landsat 7 3.9 22:40:01 42° SE 22:41:28 66° ENE 22:46:11 10° N
Cosmos 1766 3.6 22:38:38 10° N 22:42:24 45° E 22:42:35 45° E
Meteor 1-21 4.5 22:41:29 37° SE 22:43:20 51° E 22:48:53 10° NNE
Cosmos 2366 rocket 3.9 22:41:22 10° N 22:47:33 84° E 22:50:16 36° S
CZ-3A R/B 3.3 22:49:52 10° W 22:51:06 13° NW 22:51:31 12° NNW
Lacrosse 5 rocket 3.8 22:53:06 10° NNW 22:56:28 19° NNE 22:59:32 11° ENE
Terra 1.9 22:55:30 51° SE 22:56:29 65° ENE 23:01:13 10° N
Meteor 1-4 Rocket 3.1 22:54:32 10° NNW 22:57:59 48° W 22:58:16 47° WSW
Cosmos 1602 Rocket 3.6 22:57:24 44° SSW 22:58:39 71° W 23:02:59 10° N
Cosmos 2082 Rocket 3.1 22:54:15 10° SW 22:59:42 47° WNW 23:05:10 10° NNE
Cosmos 1269 Rocket 3.9 23:01:07 37° SSW 23:03:16 90° ESE 23:08:37 10° NNE
Cosmos 1420 Rocket 4.1 23:02:27 10° NNW 23:07:40 68° WSW 23:08:59 48° SSW
SPOT 5 4.2 23:07:21 21° SW 23:08:59 27° W 23:12:42 10° NW
DMSP B5D2-2 4.2 23:04:29 10° N 23:09:46 75° WNW 23:11:58 36° SSW
Cosmos 1048 Rocket 4.0 23:08:12 35° SSW 23:10:24 75° WNW 23:15:36 10° NNE
Cosmos 1805 3.7 23:07:17 10° N 23:10:42 50° NE 23:10:42 50° NE
Meteor 2-14 Rocket 4.4 23:07:36 10° N 23:13:41 78° W 23:15:44 44° S
deb Chang Zheng 4 3.4 23:09:57 10° NNE 23:14:17 83° ESE 23:14:27 80° SSE
Cosmos 1697 Rocket 3.2 23:12:43 10° NW 23:18:07 49° WSW 23:19:38 39° SSW
Cosmos 1758 3.9 23:14:41 10° N 23:18:04 47° NE 23:18:04 47° NE
Cosmos 389 Rocket 3.9 23:16:17 10° N 23:18:31 30° NE 23:18:31 30° NE
Spot 4 3.9 23:21:37 59° E 23:22:00 61° ENE 23:26:46 10° N
Lacrosse 5 2.8 23:25:30 33° ENE 23:25:30 33° ENE 23:28:36 10° NE
USA 267 4.0 23:18:15 10° ENE 23:22:58 33° ESE 23:22:58 33° ESE
CARTOSAT-1 3.7 23:24:03 60° WSW 23:24:17 61° W 23:28:34 10° NNW
Cosmos 2360 4.1 23:21:17 10° NNW 23:27:01 86° WSW 23:28:04 61° SSE
Iridium 2 4.1 23:24:24 10° N 23:27:42 60° NW 23:27:42 60° NW
SL-16 R/B 2.9 23:22:58 10° N 23:28:20 42° ENE 23:29:33 37° E
ISS -0.4 23:28:09 10° NNW 23:29:12 11° N 23:30:14 10° NNE
Cosmos 1934 Rocket 4.5 23:24:45 10° N 23:30:50 46° ENE 23:32:02 41° ESE
NOSS 3-1 (C) 4.4 23:23:42 10° NNW 23:31:09 57° NE 23:34:52 33° ESE
IGS 5A 4.0 23:32:35 51° W 23:32:35 51° W 23:36:37 10° NNW
SeaSat 1 4.5 23:30:49 15° ENE 23:32:39 18° NE 23:35:57 10° N
DELTA 2 DEB (DPAF) 4.2 23:34:36 71° ENE 23:34:36 71° ENE 23:38:58 10° N
SL-19 R/B 4.5 23:33:21 10° N 23:38:33 59° WNW 23:40:12 40° SW
Cosmos 1842 4.2 23:38:51 43° WNW 23:38:51 43° WNW 23:42:35 10° N
ATLAS CENTAUR R/B 2.5 23:35:45 10° NNW 23:38:30 32° NNE 23:38:30 32° NNE
Cosmos 1271 Rocket 3.7 23:37:14 10° NNW 23:40:35 41° WNW 23:40:35 41° WNW
CZ-4C R/B 4.2 23:45:30 43° N 23:45:30 43° N 23:48:03 10° N
Cosmos 1758 Rocket 3.7 23:47:43 67° N 23:47:43 67° N 23:51:32 10° N
Cosmos 2251 Rocket 3.5 23:47:57 67° E 23:47:57 67° E 23:53:12 10° NNE
H-2A R/B 3.2 23:48:48 36° WSW 23:48:57 36° W 23:53:08 10° NNW
Cosmos 1733 4.4 23:46:02 10° N 23:48:41 38° NNE 23:48:41 38° NNE
